Home > Weather > Berkeley > Past weeks

Flag for USA Past Weather in Berkeley, California, USA — Yesterday and Last 2 Weeks

Now
71 °F

Sunny.


Feels Like: 77 °F
Forecast: 56 / 77 °F
Wind: 13 mph from West

Location: Metro Oakland International Airport

Current Time: Jun 24, 2016 at 6:42:27 PM

Latest Report: Jun 24, 2016 at 5:53 PM


Visibility: 10 mi

Pressure: 30.00 "Hg

Humidity: 49%

Dew Point: 51 °F

Location of BerkeleyLocation

Past Weather in Berkeley — Graph

°F

Berkeley Temperature Yesterday

Maximum temperature yesterday: 73 °F (at 3:53 PM)
Minimum temperature yesterday: 56 °F (at 2:53 AM)
Average temperature yesterday: 64 °F

High & Low Weather Summary for the Past Weeks

 TemperatureHumidityPressure
High87 °F (Jun 19, 1:53 PM)84% (Jun 24, 12:53 AM)30.19 "Hg (Jun 24, 12:53 AM)
Low51 °F (Jun 11, 5:53 AM)17% (Jun 19, 1:53 PM)29.88 "Hg (Jun 11, 5:53 PM)
Average64 °F63%30.03 "Hg
* Reported Jun 9 4:53 PM — Jun 24 4:53 PM, Berkeley, Weather by CustomWeather, © 2016

Note: Actual official high and low records may vary slightly from our data, if they occured in-between our weather recording intervals... More about our weather records

Advertising

Berkeley Weather History for the Previous 24 Hours

Scroll right to see more
 ConditionsComfort  
Time TempWeatherWind HumidityBarometerVisibility
4:53 PM
Fri, Jun 24
71 °FSunny.14 mph47%30.02 "Hg10 mi
3:53 PM72 °FSunny.15 mph48%30.04 "Hg10 mi
2:53 PM75 °FSunny.16 mph45%30.05 "Hg10 mi
1:53 PM74 °FSunny.12 mph46%30.06 "Hg10 mi
12:53 PM70 °FSunny.10 mph49%30.07 "Hg10 mi
11:53 AM67 °FSunny.9 mph59%30.08 "Hg10 mi
10:53 AM64 °FPassing clouds.6 mph65%30.09 "Hg10 mi
9:53 AM61 °FScattered clouds.6 mph70%30.09 "Hg10 mi
8:53 AM59 °FLow clouds.5 mph75%30.10 "Hg10 mi
7:53 AM57 °FPartly sunny.9 mph81%30.08 "Hg10 mi
6:53 AM57 °FLow clouds.9 mph81%30.07 "Hg10 mi
5:53 AM57 °FLow clouds.3 mph83%30.07 "Hg10 mi
4:53 AM57 °FLow clouds.3 mph83%30.06 "Hg10 mi
4:04 AM58 °FLow clouds.6 mph84%30.07 "Hg10 mi
3:53 AM57 °FLow clouds.8 mph83%30.07 "Hg10 mi
2:53 AM58 °FLow clouds.6 mph84%30.06 "Hg10 mi
1:53 AM58 °FLow clouds.13 mph84%30.08 "Hg10 mi
12:53 AM59 °FPassing clouds.10 mph84%30.08 "Hg10 mi
11:53 PM
Thu, Jun 23
61 °FPassing clouds.12 mph78%30.08 "Hg10 mi
10:53 PM62 °FPassing clouds.12 mph75%30.07 "Hg10 mi
9:53 PM62 °FPassing clouds.17 mph73%30.06 "Hg10 mi
8:53 PM64 °FPassing clouds.16 mph68%30.06 "Hg10 mi
7:53 PM66 °FSunny.13 mph61%30.06 "Hg10 mi
6:53 PM70 °FSunny.12 mph51%30.05 "Hg10 mi
Weather by CustomWeather, © 2016

See weather overviewHow to use our weather pages